Flag for Macedonia, Republic of Weather past 2 weeks in Ohrid, Macedonia, Republic of

Now
55 °F

Light rain. Partly sunny.


Feels Like: 54 °F
Forecast: 46 / 58 °F
Wind: 7 mph from Northwest

Location: Ohrid Airport

Current Time: May 27, 2015 at 6:45:11 PM

Latest Report: May 27, 2015 at 4:00 PM


Visibility: N/A

Pressure: 29.80 "Hg

Humidity: 77%

Dew point: 48 °F

Location of OhridLocation

Historic Weather in Ohrid — Graph

°F

Ohrid temperature yesterday

Maximum temperature yesterday: 68 °F (at 4:30 PM)
Minimum temperature yesterday: 41 °F (at 5:30 AM)
Average temperature yesterday: 56 °F

Past Weeks' High & Low Weather Summary

 TemperatureHumidityPressure
High79 °F (May 15, 4:30 PM)94% (May 14, 7:30 AM)30.27 "Hg (May 14, 7:30 AM)
Low41 °F (May 26, 5:30 AM)24% (May 16, 2:30 PM)29.77 "Hg (May 27, 4:00 AM)
Average62 °F61%29.98 "Hg
* Reported May 12 4:00 PM — May 27 4:00 PM, Ohrid, Weather by CustomWeather, © 2015

Note: Actual official high and low records may vary slightly from our data, if they occured in-between our weather recording intervals... More about our weather records

Advertising

Ohrid weather history for previous 24 hours

 ConditionsComfort  
Time TempWeatherWind HumidityBarometerVisibility
4:00 PM
Wed, May 27
55 °FLight rain. Partly sunny.7 mph77%29.80 "HgN/A
3:30 PM63 °FRain. Partly sunny.8 mph59%29.80 "HgN/A
3:00 PM63 °FPartly sunny.10 mph64%29.77 "HgN/A
2:30 PM64 °FPartly sunny.5 mph49%29.77 "HgN/A
2:00 PM63 °FPartly sunny.6 mph64%29.77 "HgN/A
1:30 PM61 °FPartly sunny.12 mph63%29.80 "HgN/A
1:00 PM64 °FPartly sunny.7 mph52%29.80 "HgN/A
12:30 PM63 °FPartly sunny.9 mph45%29.80 "HgN/A
12:00 PM64 °FPartly sunny.13 mph49%29.77 "HgN/A
11:30 AM61 °FPartly sunny.6 mph68%29.80 "HgN/A
11:00 AM61 °FPartly sunny.5 mph68%29.80 "HgN/A
10:30 AM59 °FBroken clouds.7 mph68%29.77 "HgN/A
10:00 AM59 °FBroken clouds.7 mph68%29.80 "HgN/A
9:30 AM61 °FBroken clouds.2 mph59%29.77 "HgN/A
9:00 AM61 °FScattered clouds.9 mph59%29.77 "HgN/A
8:30 AM63 °FScattered clouds.5 mph59%29.77 "HgN/A
8:00 AM59 °FScattered clouds.7 mph63%29.77 "HgN/A
7:30 AM54 °FSunny.6 mph72%29.77 "Hg10 mi
6:30 AM50 °FSunny.3 mph82%29.77 "Hg10 mi
5:30 AM45 °FClear.3 mph87%29.77 "Hg10 mi
4:00 AM43 °FClear.3 mph87%29.77 "Hg10 mi
3:30 AM43 °FClear.2 mph87%29.80 "Hg10 mi
3:00 AM43 °FClear.5 mph87%29.80 "Hg10 mi
Weather by CustomWeather, © 2015

See weather overviewHow to use our weather pages